Wind_Speed
5 6 5 8 13 13 12 12 13 7 4 3 7 7 6 9 12 15 19 19 20 17 11 10 11 10 8 5 1 5 5 6 5 4 1 2 3 3 5 5 5 4 6 6
7 6 8 11 15 15 16 17 14 9 6 9 9 6 3 8 7 9 10 13 16 17 16 13 14 11 8 6 4 3 6 7 7 7 8 8 8 10 11 8 11 12 11 10
8 8 12 10 11 13 14 16 14 11 13 15 14 9 3 2 2 3 8 9 10 14 17 16 14 14 12 8 3 4 5 6 7 10 12 15 16 17 14 14 16 16 17 19
11 10 12 10 10 11 12 17 19 16 16 17 16 16 12 8 4 1 4 5 6 11 14 16 15 18 16 12 8 7 8 6 9 12 12 14 16 18 16 14 16 21 25 24
12 11 11 12 13 14 12 14 14 10 12 17 17 20 17 15 8 5 6 2 4 11 13 16 15 18 18 16 13 12 11 9 12 14 15 13 15 17 17 19 18 22 22 24
16 15 12 12 15 13 14 13 11 10 10 13 18 21 18 14 13 10 8 8 7 11 12 15 16 18 20 18 20 17 16 15 15 17 18 19 18 19 18 19 22 24 25 24
17 17 14 12 13 11 13 14 15 13 13 13 17 17 14 13 13 11 10 12 12 12 14 16 16 21 21 20 20 19 19 19 20 23 21 20 22 22 22 24 25 26 27 29
18 18 13 13 12 11 12 15 15 14 15 16 18 20 20 19 19 18 20 18 16 13 16 17 20 24 22 23 22 22 23 22 20 22 25 26 27 27 28 29 30 31 32 34
20 18 14 14 13 12 15 17 13 15 17 18 18 20 21 21 22 21 19 22 20 19 21 22 25 27 31 24 24 21 23 26 26 27 24 24 27 30 33 33 34 35 36 37
22 19 16 15 15 16 14 17 19 17 16 15 16 16 18 20 23 25 25 24 22 23 24 27 30 32 27 24 24 26 30 31 29 27 29 32 34 35 35 36 38 42 43 44
24 19 16 17 18 19 19 20 19 19 15 15 15 16 16 19 21 22 23 23 24 26 30 33 32 29 27 27 29 31 34 36 37 36 35 33 34 37 39 41 41 42 44 47
19 17 17 18 19 20 19 20 17 18 21 18 17 14 16 17 17 19 22 25 28 30 30 30 29 31 32 34 36 37 38 39 40 40 39 40 42 44 44 46 48 49 51 52
21 21 18 20 21 19 15 17 19 23 25 23 24 20 18 18 20 20 22 25 27 28 30 32 33 36 37 38 40 41 42 43 43 44 45 48 52 52 52 52 52 53 54 54
26 25 24 21 19 22 23 18 20 24 27 29 28 28 26 22 20 23 24 24 27 31 32 33 36 38 41 43 45 46 46 47 49 51 54 55 56 56 56 55 56 57 57 55
29 29 26 24 24 22 23 23 27 30 32 33 32 30 31 30 28 25 26 28 29 32 34 38 40 43 45 45 46 48 50 52 55 56 56 57 57 57 58 60 60 60 60 58
28 29 31 30 30 31 28 30 29 32 34 35 37 34 32 33 36 37 36 36 36 38 41 43 45 47 48 46 48 50 54 57 58 58 60 62 62 60 59 60 61 61 58 61
35 35 33 33 34 38 39 37 39 37 38 36 34 34 34 33 34 36 40 45 46 46 47 48 46 42 45 48 51 55 59 61 63 63 65 64 64 63 64 62 58 58 59 57
41 39 38 40 40 45 41 43 40 44 44 40 36 35 33 33 34 34 36 37 38 39 39 41 45 47 49 53 57 60 63 65 65 66 67 66 65 63 62 61 59 57 58 53
47 47 50 50 49 49 48 45 45 43 43 40 39 35 33 32 34 35 35 35 38 41 43 45 49 52 55 58 62 64 66 68 67 68 69 69 69 66 63 59 58 53 53 47
55 52 48 45 48 51 48 46 46 42 41 39 40 36 32 32 33 34 35 37 39 41 44 46 50 54 58 61 64 66 66 69 72 70 70 70 66 61 54 50 43 44 41 42
46 46 46 47 49 50 47 45 42 39 35 36 34 31 29 30 32 35 37 39 41 44 46 50 54 57 60 62 65 67 69 69 65 60 58 54 51 46 44 39 39 42 39 39
39 40 43 46 49 48 43 42 40 38 35 33 31 31 31 32 32 34 36 40 43 46 49 53 56 58 60 62 64 61 57 55 55 54 51 46 43 40 42 36 37 35 36 35
36 38 41 42 42 40 39 38 39 39 37 34 31 32 33 35 36 38 41 44 47 49 51 54 57 59 57 51 49 47 51 56 54 44 42 41 36 36 32 29 32 33 34 34
40 42 43 42 41 41 41 41 40 39 38 35 34 34 34 36 40 44 46 49 50 51 54 54 50 46 42 42 40 46 49 39 37 38 35 33 29 29 29 31 30 29 30 30
42 40 39 40 39 39 40 40 39 39 39 37 37 37 38 40 43 45 48 50 51 51 48 44 40 39 34 34 38 39 35 32 33 33 32 29 31 32 31 33 29 27 27 27
39 38 39 38 37 38 39 39 39 38 36 36 36 38 40 43 45 47 47 48 47 48 44 37 35 34 37 36 42 37 36 33 32 31 32 33 32 32 29 27 30 26 24 29
Wind_Direction
291 294 293 258 249 267 269 267 280 267 275 348 351 20 117 105 89 75 66 45 36 34 50 39 27 23 23 9 282 295 324 315 341 8 301 255 270 263 285 298 311 333 323 325
259 284 261 258 256 254 265 278 286 272 289 303 315 354 96 167 121 83 63 53 22 32 37 50 55 45 18 6 348 304 276 291 301 290 296 300 284 257 264 272 296 299 302 297
269 260 261 267 276 275 262 262 269 278 282 288 300 305 297 178 268 116 79 58 25 26 17 19 34 36 30 21 359 325 301 276 271 275 278 292 299 317 295 275 282 281 278 280
255 247 260 267 262 256 248 244 251 258 271 275 285 283 283 290 265 215 47 55 18 16 7 5 22 17 9 16 360 336 317 295 274 267 269 278 281 288 281 295 274 282 279 283
241 235 253 265 261 253 246 232 235 254 252 262 272 280 297 291 301 313 310 302 330 348 356 352 358 11 358 349 344 340 336 326 296 291 285 277 268 274 275 273 280 279 279 280
236 237 245 251 261 254 243 243 244 257 264 260 263 272 287 290 300 298 277 278 294 322 333 335 339 348 344 341 328 322 315 313 302 291 286 288 285 285 285 281 279 287 288 291
236 240 242 250 260 263 246 243 240 245 249 260 265 276 283 286 288 290 277 268 282 306 307 318 328 328 327 327 322 308 302 298 297 297 290 287 292 295 293 292 289 290 294 294
236 240 252 240 251 248 256 243 249 261 259 261 271 276 281 282 284 280 276 290 296 291 294 304 311 309 316 307 316 298 295 293 291 289 290 293 291 289 289 289 289 290 289 290
240 242 248 248 250 248 265 245 243 270 268 263 265 271 280 278 281 280 279 282 289 290 293 299 299 303 307 297 307 297 294 291 288 284 277 286 290 293 293 291 290 289 288 287
236 237 244 256 249 249 249 246 256 264 268 260 267 272 276 273 275 280 282 283 286 290 298 300 304 305 302 305 307 302 297 290 286 285 285 286 288 286 282 282 288 288 288 287
242 238 244 245 249 248 250 252 261 273 277 275 272 281 279 279 277 279 281 285 290 294 297 300 302 304 301 297 299 299 296 293 296 294 291 288 287 286 288 288 286 282 281 281
229 240 236 251 258 257 257 268 273 280 293 291 286 288 290 293 287 285 289 289 288 292 299 302 301 300 302 303 304 299 290 292 294 295 298 297 295 293 292 291 289 286 286 286
234 240 236 246 255 267 274 275 285 293 293 292 293 293 287 289 290 292 292 293 296 300 300 300 302 303 303 301 300 293 296 297 298 297 296 298 298 296 293 292 290 287 286 286
237 240 245 245 267 258 266 280 288 295 294 294 295 297 296 294 289 289 290 293 292 290 294 298 300 302 302 300 298 299 299 298 297 298 297 294 292 291 290 289 289 288 286 285
238 244 245 251 253 263 275 279 285 293 297 293 289 291 293 292 291 287 284 285 289 295 299 298 299 299 300 299 298 296 296 295 292 291 291 291 290 289 290 289 289 289 289 286
252 255 254 258 260 267 273 276 285 291 295 293 288 290 290 293 300 301 301 301 299 297 296 296 296 297 296 293 292 291 289 288 290 290 290 292 292 289 292 291 292 291 288 290
256 259 261 260 261 265 269 278 285 292 290 286 282 284 286 289 289 292 295 292 288 287 288 287 288 287 286 284 286 287 288 288 290 289 292 294 294 293 291 291 290 289 290 288
249 253 254 255 259 264 274 275 282 287 284 281 280 282 282 282 282 280 279 279 280 284 285 283 284 286 288 288 287 288 291 292 292 294 294 293 291 290 289 290 289 287 287 287
245 254 258 258 262 265 269 277 279 278 277 279 280 282 282 280 280 279 276 275 276 279 280 282 284 287 287 287 287 289 293 296 295 292 291 290 293 290 289 288 291 289 284 285
254 257 262 266 266 269 272 276 276 275 275 280 281 286 289 288 285 283 280 279 279 281 282 283 284 284 285 287 289 293 295 294 294 293 295 295 294 293 292 287 283 282 283 286
253 258 261 260 263 266 267 270 272 274 276 277 284 287 285 279 277 277 279 280 282 283 283 282 283 285 288 292 294 294 295 296 295 295 299 300 297 290 284 276 276 281 284 288
260 260 258 258 261 265 270 273 275 276 278 283 286 283 280 278 278 280 279 279 280 282 284 288 291 294 295 296 298 298 296 296 297 301 300 300 298 283 292 284 286 283 284 287
252 255 260 261 266 270 274 274 276 280 285 288 283 280 281 283 284 283 282 284 287 291 295 299 302 302 302 302 301 301 299 299 299 299 298 295 296 285 289 293 290 286 287 285
245 247 252 258 261 264 266 271 276 281 283 282 281 281 282 283 285 287 290 293 299 302 303 303 302 304 305 304 306 305 305 307 307 303 302 298 297 294 294 299 292 287 283 294
256 258 260 262 262 264 267 270 273 276 278 281 282 285 285 285 286 289 293 297 299 301 301 302 304 306 305 308 311 309 313 315 309 305 303 296 294 292 294 297 290 285 288 289
259 261 262 265 267 267 268 270 272 274 277 280 283 284 285 284 285 290 292 295 299 297 299 300 300 301 303 306 312 310 313 315 315 311 308 302 296 295 296 292 291 289 284 291
Height
5920 5921 5920 5921 5921 5922 5922 5923 5924 5925 5925 5926 5927 5928 5931 5932 5931 5931 5930 5929 5927 5925 5923 5921 5919 5917 5917 5917 5917 5918 5917 5917 5918 5918 5919 5919 5918 5918 5918 5917 5917 5916 5916 5915
5920 5920 5920 5921 5920 5921 5921 5921 5922 5923 5924 5924 5926 5927 5929 5931 5931 5930 5930 5929 5929 5927 5925 5922 5920 5919 5918 5917 5916 5916 5917 5917 5917 5917 5917 5917 5918 5917 5916 5916 5915 5914 5914 5914
5918 5919 5918 5919 5919 5919 5920 5920 5920 5922 5922 5922 5922 5925 5927 5929 5930 5930 5929 5929 5929 5928 5926 5923 5921 5920 5919 5918 5917 5916 5916 5916 5917 5917 5916 5915 5915 5915 5914 5914 5914 5914 5913 5913
5916 5917 5917 5917 5917 5917 5917 5918 5918 5920 5919 5920 5920 5921 5924 5926 5927 5928 5927 5927 5928 5928 5926 5923 5921 5919 5918 5917 5917 5917 5915 5914 5914 5914 5913 5914 5914 5913 5912 5911 5911 5912 5910 5909
5914 5914 5914 5914 5915 5915 5917 5916 5917 5918 5918 5918 5918 5917 5920 5922 5924 5926 5925 5925 5925 5926 5925 5922 5919 5918 5917 5915 5914 5914 5913 5913 5912 5910 5909 5909 5910 5909 5907 5907 5906 5906 5905 5905
5910 5911 5911 5912 5914 5914 5914 5914 5914 5915 5917 5917 5916 5916 5917 5919 5921 5922 5923 5923 5922 5923 5922 5921 5918 5917 5916 5915 5912 5911 5910 5909 5908 5907 5905 5904 5904 5903 5902 5902 5904 5902 5900 5900
5908 5908 5908 5910 5910 5910 5911 5911 5912 5914 5914 5915 5913 5914 5916 5917 5918 5919 5920 5920 5919 5919 5919 5917 5915 5914 5913 5912 5911 5909 5908 5906 5905 5902 5901 5900 5898 5898 5898 5896 5895 5895 5893 5891
5904 5905 5906 5907 5908 5908 5908 5909 5910 5910 5911 5912 5910 5910 5911 5912 5913 5915 5916 5916 5916 5916 5915 5913 5912 5911 5910 5909 5906 5903 5902 5901 5900 5898 5896 5894 5892 5892 5890 5889 5888 5887 5885 5883
5900 5901 5903 5903 5904 5905 5905 5906 5908 5906 5907 5908 5909 5908 5908 5909 5909 5908 5910 5911 5911 5910 5908 5908 5908 5906 5904 5902 5900 5898 5897 5895 5893 5892 5891 5889 5886 5884 5882 5880 5879 5878 5876 5874
5895 5897 5898 5898 5900 5901 5902 5903 5903 5903 5903 5903 5904 5905 5905 5905 5905 5904 5904 5904 5904 5903 5903 5903 5901 5900 5898 5895 5892 5890 5888 5886 5885 5885 5883 5881 5879 5877 5875 5873 5869 5867 5865 5863
5889 5892 5895 5895 5895 5897 5899 5898 5899 5898 5900 5899 5900 5901 5901 5900 5900 5900 5899 5898 5898 5898 5897 5896 5895 5893 5891 5889 5886 5882 5879 5877 5876 5875 5874 5873 5870 5866 5863 5860 5859 5857 5855 5852
5885 5886 5888 5890 5890 5891 5893 5894 5894 5893 5894 5894 5894 5897 5895 5894 5894 5894 5894 5893 5893 5892 5891 5890 5888 5885 5883 5880 5877 5874 5872 5871 5868 5865 5863 5860 5857 5853 5851 5849 5846 5844 5841 5839
5881 5881 5882 5883 5886 5887 5888 5889 5889 5888 5887 5888 5887 5889 5890 5890 5888 5888 5888 5887 5887 5886 5884 5882 5880 5877 5875 5872 5870 5868 5865 5862 5857 5854 5851 5847 5843 5840 5838 5834 5832 5828 5826 5824
5875 5876 5877 5880 5881 5881 5882 5884 5884 5883 5883 5882 5881 5881 5881 5883 5884 5883 5882 5882 5881 5879 5877 5874 5872 5869 5866 5863 5859 5857 5853 5849 5845 5841 5839 5836 5832 5828 5824 5820 5816 5812 5810 5808
5869 5870 5872 5874 5876 5877 5877 5878 5877 5877 5876 5876 5875 5875 5874 5873 5874 5876 5877 5876 5873 5871 5869 5866 5863 5860 5857 5853 5849 5846 5842 5837 5833 5830 5827 5822 5818 5814 5809 5805 5801 5798 5794 5791
5862 5862 5866 5868 5869 5870 5871 5871 5872 5871 5870 5868 5866 5868 5868 5866 5863 5862 5862 5862 5862 5861 5859 5856 5854 5850 5847 5844 5839 5835 5829 5825 5821 5817 5811 5807 5802 5799 5795 5790 5786 5782 5778 5775
5854 5856 5859 5861 5862 5862 5863 5865 5865 5864 5863 5862 5861 5862 5861 5861 5859 5857 5855 5853 5852 5850 5849 5847 5844 5841 5837 5832 5828 5824 5818 5812 5807 5801 5797 5792 5786 5783 5779 5774 5770 5766 5762 5758
5846 5849 5851 5851 5853 5852 5856 5856 5858 5856 5854 5853 5855 5854 5854 5852 5851 5850 5848 5846 5843 5840 5837 5835 5832 5828 5824 5819 5813 5808 5803 5797 5792 5787 5780 5774 5769 5765 5761 5757 5753 5749 5746 5742
5837 5840 5842 5843 5844 5844 5844 5849 5849 5848 5845 5846 5845 5845 5845 5844 5842 5840 5838 5837 5835 5832 5828 5823 5819 5815 5810 5805 5799 5794 5789 5782 5776 5769 5762 5756 5750 5747 5743 5740 5737 5732 5730 5727
5828 5830 5833 5834 5834 5833 5836 5838 5837 5838 5838 5838 5835 5836 5835 5834 5832 5830 5828 5826 5823 5820 5817 5814 5809 5803 5797 5792 5785 5780 5775 5765 5757 5749 5743 5737 5731 5728 5725 5722 5720 5718 5716 5713
5818 5819 5821 5822 5822 5823 5825 5827 5829 5831 5833 5828 5828 5827 5826 5824 5822 5819 5817 5815 5812 5809 5805 5799 5794 5789 5783 5778 5770 5764 5756 5746 5738 5732 5725 5718 5713 5711 5708 5707 5706 5705 5704 5701
5808 5809 5810 5810 5811 5813 5816 5817 5819 5820 5819 5820 5819 5817 5815 5814 5813 5811 5807 5803 5799 5795 5790 5785 5780 5775 5769 5760 5752 5746 5738 5729 5723 5718 5712 5706 5702 5698 5697 5696 5695 5694 5692 5690
5798 5799 5800 5802 5802 5804 5806 5807 5806 5807 5807 5808 5808 5806 5805 5802 5799 5797 5793 5790 5786 5782 5777 5771 5765 5758 5750 5743 5737 5731 5724 5717 5711 5705 5700 5695 5693 5690 5688 5686 5684 5684 5681 5680
5787 5789 5791 5794 5795 5796 5797 5797 5798 5798 5798 5798 5797 5795 5793 5791 5787 5783 5780 5776 5773 5768 5763 5758 5751 5745 5739 5733 5727 5721 5713 5706 5701 5696 5691 5687 5685 5682 5679 5677 5675 5674 5671 5670
5778 5781 5783 5784 5786 5788 5788 5788 5789 5788 5787 5787 5786 5785 5782 5780 5776 5772 5769 5765 5762 5757 5751 5745 5740 5735 5729 5725 5719 5712 5705 5698 5693 5688 5684 5680 5677 5673 5671 5668 5665 5664 5662 5662
5770 5772 5774 5775 5777 5778 5779 5780 5780 5779 5779 5779 5777 5775 5771 5768 5766 5763 5759 5755 5750 5745 5739 5736 5731 5726 5722 5716 5711 5705 5698 5691 5687 5683 5677 5672 5667 5664 5661 5659 5657 5655 5654 5654